Weather History for KUAO - September, 2013

Change the Weather History Date:

Friday, September 13, 2013

  Actual Average Record
Temperature  
Mean Temperature 66 °F -  
Max Temperature 76 °F - 95 °F (1999)
Min Temperature 57 °F - 44 °F (2012)
Degree Days  
Heating Degree Days 0    
Month to date heating degree days 3  
Since 1 July heating degree days 13  
Cooling Degree Days 2    
Month to date cooling degree days 61  
Year to date cooling degree days 423  
Growing Degree Days 16 (Base 50)    
Moisture  
Dew Point 59 °F    
Average Humidity 82    
Maximum Humidity 100    
Minimum Humidity 64    
Precipitation  
Precipitation 0.00 in - 0.40 in (1955)
Month to date precipitation 2.19  
Year to date precipitation 15.77  
Sea Level Pressure  
Sea Level Pressure 29.94 in    
Wind  
Wind Speed 2 mph (NE)    
Max Wind Speed 9 mph    
Max Gust Speed 12 mph    
Visibility 8 miles    
Events      
T = Trace of Precipitation, MM = Missing Value Source: NWS Daily Summary

Daily Weather History Graph

Daily Weather History Graph

Search for Another Location

Airport or City:

Trip Planner

Search our weather history database for the weather conditions in past years. The results will help you decide how hot, cold, wet, or windy it might be!

Date:

Astronomy

Sep. 13, 2013 Rise Set
Actual Time 6:47 AM PDT 7:25 PM PDT
Civil Twilight 6:17 AM PDT 7:54 PM PDT
Nautical Twilight 5:42 AM PDT 8:29 PM PDT
Astronomical Twilight 5:06 AM PDT 9:06 PM PDT
Moon 3:31 PM PDT (9/13) 12:10 AM PDT (9/13)
Length of Visible Light 13h 36m
Length of Day
12h 37m
Waxing Gibbous, 62% of the Moon is Illuminated
Sep 13
Waxing Gibbous
Sep 19
Full
Sep 26
Last Quarter
Oct 4
New
Oct 11
First Quarter

Hourly Weather History & Observations

Time (PDT) Temp. Dew Point Humidity Pressure Visibility Wind Dir Wind Speed Gust Speed Precip Events Conditions
12:53 AM 62.1 °F 59.0 °F 90% 29.95 in 10.0 mi Calm Calm - N/A   Clear
1:53 AM 60.1 °F 57.9 °F 93% 29.95 in 10.0 mi Calm Calm - N/A   Clear
2:53 AM 59.0 °F 57.9 °F 96% 29.96 in 10.0 mi Calm Calm - N/A   Clear
3:53 AM 57.9 °F 57.0 °F 97% 29.96 in 10.0 mi South 3.5 mph - N/A   Clear
4:53 AM 57.9 °F 57.0 °F 97% 29.97 in 5.0 mi Calm Calm - N/A   Clear
5:48 AM 57.2 °F 57.2 °F 100% 29.97 in 10.0 mi Calm Calm - N/A   Mostly Cloudy
5:53 AM 57.9 °F 57.0 °F 97% 29.97 in 10.0 mi Calm Calm - N/A   Mostly Cloudy
6:17 AM 57.2 °F 57.2 °F 100% 29.97 in 10.0 mi Calm Calm - N/A   Overcast
6:53 AM 59.0 °F 57.0 °F 93% 29.97 in 10.0 mi Calm Calm - N/A   Overcast
7:53 AM 57.9 °F 57.9 °F 100% 29.98 in 1.8 mi Calm Calm - N/A   Overcast
8:21 AM 57.2 °F 57.2 °F 100% 29.98 in 2.5 mi SSE 3.5 mph - N/A   Overcast
8:37 AM 57.2 °F 57.2 °F 100% 29.98 in 1.5 mi South 3.5 mph - N/A   Overcast
8:53 AM 59.0 °F 57.9 °F 96% 29.99 in 1.2 mi South 3.5 mph - N/A   Overcast
9:21 AM 60.8 °F 59.0 °F 94% 29.98 in 3.0 mi Calm Calm - N/A   Overcast
9:28 AM 60.8 °F 59.0 °F 94% 29.98 in 3.0 mi Calm Calm - N/A   Overcast
9:53 AM 61.0 °F 59.0 °F 93% 29.98 in 4.0 mi Calm Calm - N/A   Overcast
10:24 AM 62.6 °F 60.8 °F 94% 29.98 in 6.0 mi NE 3.5 mph - N/A   Overcast
10:53 AM 63.0 °F 60.1 °F 90% 29.97 in 8.0 mi Calm Calm - N/A   Overcast
11:04 AM 62.6 °F 60.8 °F 94% 29.97 in 6.0 mi Calm Calm - N/A   Overcast
11:53 AM 64.0 °F 60.1 °F 87% 29.96 in 10.0 mi Calm Calm - N/A   Overcast
12:43 PM 64.4 °F 60.8 °F 88% 29.95 in 10.0 mi Calm Calm - N/A   Overcast
12:53 PM 64.9 °F 60.1 °F 84% 29.94 in 10.0 mi Calm Calm - N/A   Overcast
1:53 PM 66.9 °F 61.0 °F 81% 29.93 in 10.0 mi Calm Calm - N/A   Overcast
2:53 PM 70.0 °F 61.0 °F 73% 29.91 in 10.0 mi Calm Calm - N/A   Scattered Clouds
3:53 PM 73.0 °F 62.1 °F 68% 29.89 in 10.0 mi Calm Calm - N/A   Clear
4:53 PM 75.0 °F 62.1 °F 64% 29.87 in 10.0 mi North 3.5 mph - N/A   Clear
5:53 PM 75.0 °F 62.1 °F 64% 29.85 in 10.0 mi Calm Calm - N/A   Clear
6:53 PM 73.0 °F 63.0 °F 71% 29.84 in 10.0 mi Calm Calm - N/A   Clear
7:53 PM 68.0 °F 61.0 °F 78% 29.85 in 10.0 mi Calm Calm - N/A   Clear
8:53 PM 64.9 °F 61.0 °F 87% 29.86 in 10.0 mi North 4.6 mph - N/A   Clear
9:53 PM 63.0 °F 60.1 °F 90% 29.86 in 10.0 mi North 8.1 mph - N/A   Clear
10:53 PM 63.0 °F 60.1 °F 90% 29.87 in 10.0 mi North 5.8 mph - N/A   Clear
11:53 PM 61.0 °F 59.0 °F 93% 29.87 in 10.0 mi NNE 5.8 mph - N/A   Clear